TimeAEST,TemperatureF,Dew PointF,Humidity,Sea Level PressureIn,VisibilityMPH,Wind Direction,Wind SpeedMPH,Gust SpeedMPH,PrecipitationIn,Events,Conditions,WindDirDegrees,DateUTC
12:00 AM,79,72,75,29.83,,East,6.9,,,,Overcast,100,2013-11-11 14:00:00
12:00 AM,78.8,73.4,83,29.83,6.2,East,6.9,-,N/A,,Mostly Cloudy,100,2013-11-11 14:00:00
12:30 AM,78.8,73.4,83,29.83,6.2,SE,6.9,-,N/A,,Mostly Cloudy,140,2013-11-11 14:30:00
1:00 AM,78,72,78,29.83,,SE,6.9,,,,,140,2013-11-11 15:00:00
1:00 AM,78.8,73.4,83,29.80,6.2,SE,6.9,-,N/A,,Mostly Cloudy,140,2013-11-11 15:00:00
1:30 AM,78.8,73.4,83,29.80,6.2,SE,8.1,-,N/A,,Light Drizzle,140,2013-11-11 15:30:00
2:00 AM,78.8,73.4,83,29.80,6.2,SE,5.8,-,N/A,,Light Drizzle,130,2013-11-11 16:00:00
2:30 AM,77.0,73.4,89,29.80,6.2,SE,6.9,-,N/A,,Mostly Cloudy,140,2013-11-11 16:30:00
2:43 AM,77.0,73.4,89,29.80,5.0,SSE,8.1,-,N/A,Rain,Light Rain Showers,150,2013-11-11 16:43:00
2:59 AM,77.0,73.4,89,29.80,5.0,SSE,4.6,-,N/A,Rain,Light Rain Showers,150,2013-11-11 16:59:00
3:00 AM,77,73,84,29.80,3,SE,4.6,,,,Overcast,140,2013-11-11 17:00:00
3:30 AM,77.0,73.4,89,29.80,6.2,South,5.8,-,N/A,,Mostly Cloudy,170,2013-11-11 17:30:00
4:00 AM,76,72,86,29.82,,SSE,4.6,,,,,160,2013-11-11 18:00:00
4:00 AM,77.0,73.4,89,29.80,6.2,SSE,4.6,-,N/A,,Scattered Clouds,160,2013-11-11 18:00:00
4:30 AM,75.2,73.4,94,29.80,6.2,SSE,6.9,-,N/A,,Partly Cloudy,150,2013-11-11 18:30:00
5:00 AM,75.2,73.4,94,29.80,6.2,SSE,5.8,-,N/A,,Partly Cloudy,150,2013-11-11 19:00:00
5:30 AM,77.0,71.6,83,29.83,6.2,South,4.6,-,N/A,,Scattered Clouds,170,2013-11-11 19:30:00
6:00 AM,77,72,82,29.84,19,South,5.8,,,,Partly Cloudy,170,2013-11-11 20:00:00
6:00 AM,77.0,73.4,89,29.83,6.2,South,5.8,-,N/A,,Scattered Clouds,170,2013-11-11 20:00:00
6:30 AM,77.0,73.4,89,29.83,6.2,SE,6.9,-,N/A,,Mostly Cloudy,140,2013-11-11 20:30:00
7:00 AM,78,73,79,29.87,,SSE,8.1,,,,,150,2013-11-11 21:00:00
7:00 AM,78.8,73.4,83,29.86,6.2,SSE,8.1,-,N/A,,Mostly Cloudy,150,2013-11-11 21:00:00
7:30 AM,78.8,73.4,83,29.86,6.2,South,5.8,-,N/A,,Mostly Cloudy,170,2013-11-11 21:30:00
8:00 AM,78.8,75.2,89,29.89,6.2,South,5.8,-,N/A,,Scattered Clouds,170,2013-11-11 22:00:00
8:30 AM,82.4,73.4,74,29.89,6.2,SE,4.6,-,N/A,,Scattered Clouds,140,2013-11-11 22:30:00
9:00 AM,82,73,69,29.90,19,SE,5.8,,,,Partly Cloudy,130,2013-11-11 23:00:00
9:00 AM,82.4,73.4,74,29.89,6.2,SE,5.8,-,N/A,,Mostly Cloudy,130,2013-11-11 23:00:00
9:30 AM,82.4,73.4,74,29.89,6.2,ENE,8.1,-,N/A,,Mostly Cloudy,60,2013-11-11 23:30:00
10:00 AM,82,75,73,29.90,,ENE,9.2,,,,,70,2013-11-12 00:00:00
10:00 AM,82.4,75.2,79,29.89,6.2,ENE,9.2,-,N/A,Rain,Light Rain Showers,70,2013-11-12 00:00:00
10:30 AM,82.4,73.4,74,29.89,6.2,ENE,9.2,-,N/A,,Scattered Clouds,70,2013-11-12 00:30:00
11:00 AM,82.4,75.2,79,29.89,6.2,ENE,10.4,-,N/A,,Scattered Clouds,60,2013-11-12 01:00:00
11:30 AM,84.2,75.2,74,29.86,6.2,ENE,12.7,-,N/A,,Scattered Clouds,70,2013-11-12 01:30:00
11:58 AM,78.8,75.2,89,29.86,3.7,East,12.7,-,N/A,Rain,Light Rain Showers,100,2013-11-12 01:58:00
12:00 PM,79,76,89,29.87,9,East,11.5,,,Rain,Light Rain Showers,90,2013-11-12 02:00:00
12:00 PM,78.8,77.0,94,29.86,6.2,East,11.5,-,N/A,Rain,Light Rain Showers,90,2013-11-12 02:00:00
12:11 PM,78.8,75.2,89,29.86,3.1,East,10.4,-,N/A,Rain,Light Rain Showers,80,2013-11-12 02:11:00
12:20 PM,75.2,73.4,94,29.86,1.9,East,16.1,-,N/A,Rain,Light Rain Showers,90,2013-11-12 02:20:00
12:30 PM,77.0,75.2,94,29.86,1.9,SE,10.4,-,N/A,Rain,Light Rain Showers,130,2013-11-12 02:30:00
1:00 PM,77,75,92,29.86,,SSE,6.9,,,,,160,2013-11-12 03:00:00
1:00 PM,77.0,75.2,94,29.83,6.2,SSE,6.9,-,N/A,,Mostly Cloudy,160,2013-11-12 03:00:00
1:30 PM,80.6,77.0,89,29.83,6.2,ENE,11.5,-,N/A,,Scattered Clouds,60,2013-11-12 03:30:00
2:00 PM,82.4,75.2,79,29.83,6.2,ENE,11.5,-,N/A,,Scattered Clouds,70,2013-11-12 04:00:00
2:30 PM,82.4,75.2,79,29.80,6.2,ENE,13.8,-,N/A,,Partly Cloudy,70,2013-11-12 04:30:00
3:00 PM,82,75,73,29.82,19,ENE,15.0,,,,Partly Cloudy,70,2013-11-12 05:00:00
3:00 PM,82.4,75.2,79,29.80,6.2,ENE,15.0,-,N/A,,Scattered Clouds,70,2013-11-12 05:00:00
3:30 PM,84.2,75.2,74,29.80,6.2,East,12.7,-,N/A,,Mostly Cloudy,80,2013-11-12 05:30:00
4:00 PM,83,75,70,29.83,,ENE,11.5,,,,,70,2013-11-12 06:00:00
4:00 PM,82.4,75.2,79,29.80,6.2,ENE,11.5,-,N/A,Rain,Light Rain Showers,70,2013-11-12 06:00:00
4:30 PM,80.6,75.2,84,29.80,6.2,ESE,11.5,-,N/A,Rain,Light Rain Showers,120,2013-11-12 06:30:00
5:00 PM,80.6,73.4,79,29.83,6.2,ESE,10.4,-,N/A,,Mostly Cloudy,110,2013-11-12 07:00:00
5:30 PM,80.6,73.4,79,29.83,6.2,East,9.2,-,N/A,,Mostly Cloudy,90,2013-11-12 07:30:00
5:57 PM,77.0,73.4,89,29.83,3.7,ESE,16.1,-,N/A,Rain,Light Rain Showers,120,2013-11-12 07:57:00
6:00 PM,76,74,92,29.84,4,SE,15.0,,,,Overcast,130,2013-11-12 08:00:00
6:00 PM,77.0,73.4,89,29.83,5.0,SE,15.0,-,N/A,Rain,Light Rain Showers,130,2013-11-12 08:00:00
6:30 PM,77.0,75.2,94,29.83,5.6,SSE,8.1,-,N/A,Rain,Light Rain Showers,150,2013-11-12 08:30:00
7:00 PM,77,74,87,29.85,,SSE,5.8,,,,,160,2013-11-12 09:00:00
7:00 PM,77.0,73.4,89,29.83,6.2,SSE,5.8,-,N/A,,Scattered Clouds,160,2013-11-12 09:00:00
7:30 PM,77.0,73.4,89,29.83,6.2,SE,6.9,-,N/A,,Scattered Clouds,140,2013-11-12 09:30:00
8:00 PM,77.0,75.2,94,29.86,6.2,SE,6.9,-,N/A,,Scattered Clouds,140,2013-11-12 10:00:00
8:30 PM,78.8,73.4,83,29.86,6.2,ESE,6.9,-,N/A,Rain,Light Rain Showers,110,2013-11-12 10:30:00
9:00 PM,78,73,80,29.88,,SE,9.2,,,,Overcast,130,2013-11-12 11:00:00
9:00 PM,77.0,73.4,89,29.86,6.2,SE,9.2,-,N/A,,Mostly Cloudy,130,2013-11-12 11:00:00
9:30 PM,77.0,73.4,89,29.86,6.2,SSE,6.9,-,N/A,,Scattered Clouds,150,2013-11-12 11:30:00
10:00 PM,78,74,83,29.89,,ESE,8.1,,,,,120,2013-11-12 12:00:00
10:00 PM,77.0,73.4,89,29.89,6.2,ESE,8.1,-,N/A,,Light Drizzle,120,2013-11-12 12:00:00
10:30 PM,77.0,75.2,94,29.89,6.2,SSE,5.8,-,N/A,Rain,Light Rain Showers,150,2013-11-12 12:30:00
11:00 PM,77.0,73.4,89,29.89,6.2,SSE,8.1,-,N/A,,Mostly Cloudy,150,2013-11-12 13:00:00
11:30 PM,77.0,73.4,89,29.86,6.2,SSE,5.8,-,N/A,Rain,Light Rain Showers,160,2013-11-12 13:30:00